Location: Belloy
(55.7522°N, 118.2333°W)
Time: 00:19:30
(UTC+00:00)

Envisat - Pass Details

Date: 06 December 2021
Orbit: 764 x 766 km, 98.2° (Epoch: 27 January)

Event Time Altitude Azimuth Distance (km) Brightness Sun altitude
Rises 12:35:18 0° 18° (NNE) 3,249 6.5 -28.1°
Reaches altitude 10° 12:37:42 10° 24° (NNE) 2,318 5.7 -27.7°
Maximum altitude 12:42:38 47° 98° (E) 1,016 3.9 -27.0°
Drops below altitude 10° 12:47:31 10° 172° (S) 2,301 5.6 -26.4°
Sets 12:49:54 0° 179° (S) 3,222 6.3 -26.0°
